Weather History for Vero Beach, FL

Change the Weather History Date:

Saturday, March 23, 2013

  Actual Average Record
Temperature  
Mean Temperature 79 °F 68 °F  
Max Temperature 90 °F 78 °F 90 °F (1977)
Min Temperature 67 °F 58 °F 37 °F (1996)
Degree Days  
Heating Degree Days 0 1  
Month to date heating degree days 130 47  
Since 1 July heating degree days 358 432  
Cooling Degree Days 14 4  
Month to date cooling degree days 44 92  
Year to date cooling degree days 279 231  
Growing Degree Days 28 (Base 50)    
Moisture  
Dew Point 67 °F    
Average Humidity 70    
Maximum Humidity 97    
Minimum Humidity 43    
Precipitation  
Precipitation 0.50 in 0.15 in 1.09 in (1981)
Month to date precipitation 0.61 3.04  
Year to date precipitation 3.16 8.21  
Sea Level Pressure  
Sea Level Pressure 29.93 in    
Wind  
Wind Speed 8 mph (South)    
Max Wind Speed 23 mph    
Max Gust Speed 32 mph    
Visibility 8 miles    
Events Rain , Thunderstorm    
T = Trace of Precipitation, MM = Missing Value Source: NWS Daily Summary

Daily Weather History Graph

Daily Weather History Graph

Search for Another Location

Airport:

Trip Planner

Search our weather history database for the weather conditions in past years. The results will help you decide how hot, cold, wet, or windy it might be!

Date:

Astronomy

Mar. 23, 2013 Rise Set
Actual Time 7:21 AM EDT 7:34 PM EDT
Civil Twilight 6:58 AM EDT 7:58 PM EDT
Nautical Twilight 6:31 AM EDT 8:25 PM EDT
Astronomical Twilight 6:03 AM EDT 8:52 PM EDT
Moon 4:15 PM EDT (3/23) 4:39 AM EDT (3/23)
Length of Visible Light 12h 59m
Length of Day
12h 12m
Waxing Gibbous, 85% of the Moon is Illuminated
Mar 23
Waxing Gibbous
Mar 27
Full
Apr 3
Last Quarter
Apr 10
New
Apr 18
First Quarter

Hourly Weather History & Observations

Time (EDT) Temp. Heat Index Dew Point Humidity Pressure Visibility Wind Dir Wind Speed Gust Speed Precip Events Conditions
12:38 AM 69.8 °F - 66.2 °F 88% 29.98 in 10.0 mi ESE 9.2 mph - 0.02 in Rain Light Rain
12:53 AM 70.0 °F - 66.9 °F 90% 29.97 in 7.0 mi ESE 6.9 mph - 0.03 in Rain Light Rain
1:11 AM 69.8 °F - 66.2 °F 88% 29.98 in 9.0 mi East 3.5 mph - 0.00 in Rain Light Rain
1:40 AM 69.8 °F - 66.2 °F 88% 29.98 in 5.0 mi East 4.6 mph - 0.06 in Rain Light Rain
1:48 AM 69.8 °F - 66.2 °F 88% 29.98 in 8.0 mi East 5.8 mph - 0.06 in Rain Light Rain
1:53 AM 69.1 °F - 66.9 °F 93% 29.98 in 9.0 mi East 4.6 mph - 0.06 in Rain Light Rain
2:11 AM 69.8 °F - 66.2 °F 88% 29.99 in 7.0 mi ESE 3.5 mph - 0.01 in Rain Light Rain
2:25 AM 69.8 °F - 68.0 °F 94% 29.98 in 4.0 mi SE 4.6 mph - 0.03 in Rain Rain
3:02 AM 69.8 °F - 68.0 °F 94% 29.97 in 2.0 mi Calm Calm - 0.03 in Rain Heavy Rain
3:06 AM 69.8 °F - 68.0 °F 94% 29.97 in 1.0 mi NNW 8.1 mph - 0.11 in Rain , Thunderstorm Heavy Rain
3:20 AM 69.8 °F - 68.0 °F 94% 29.96 in 3.0 mi Calm Calm - 0.37 in Rain , Thunderstorm Light Rain
3:27 AM 69.8 °F - 66.2 °F 88% 29.96 in 7.0 mi ESE 3.5 mph - 0.37 in   Overcast
3:46 AM 69.8 °F - 66.2 °F 88% 29.95 in 8.0 mi Calm Calm - 0.37 in   Overcast
3:53 AM 69.1 °F - 66.9 °F 93% 29.95 in 8.0 mi Calm Calm - 0.37 in   Overcast
4:31 AM 69.8 °F - 68.0 °F 94% 29.94 in 6.0 mi Calm Calm - N/A   Overcast
4:38 AM 69.8 °F - 68.0 °F 94% 29.94 in 6.0 mi East 3.5 mph - N/A   Overcast
4:53 AM 70.0 °F - 68.0 °F 93% 29.93 in 6.0 mi Calm Calm - N/A   Overcast
5:53 AM 69.1 °F - 68.0 °F 96% 29.92 in 4.0 mi SE 3.5 mph - N/A   Mostly Cloudy
6:08 AM 68.0 °F - 66.2 °F 94% 29.93 in 5.0 mi SSE 3.5 mph - N/A   Scattered Clouds
6:53 AM 68.0 °F - 66.9 °F 96% 29.95 in 6.0 mi Calm Calm - N/A   Clear
7:16 AM 66.2 °F - 66.2 °F 100% 29.96 in 1.8 mi Calm Calm - N/A   Partly Cloudy
7:23 AM 66.2 °F - 66.2 °F 100% 29.96 in 4.0 mi Calm Calm - N/A   Scattered Clouds
7:53 AM 69.1 °F - 68.0 °F 96% 29.96 in 4.0 mi Calm Calm - N/A   Overcast
8:53 AM 72.0 °F - 70.0 °F 93% 29.96 in 8.0 mi South 5.8 mph - N/A   Partly Cloudy
9:41 AM 73.4 °F - 71.6 °F 94% 29.96 in 10.0 mi SSW 10.4 mph - N/A   Mostly Cloudy
9:53 AM 75.0 °F - 71.1 °F 87% 29.95 in 10.0 mi South 9.2 mph - N/A   Mostly Cloudy
10:26 AM 77.0 °F - 71.6 °F 83% 29.95 in 10.0 mi SSW 10.4 mph - N/A   Mostly Cloudy
10:53 AM 80.1 °F 83.6 °F 71.1 °F 74% 29.94 in 10.0 mi SSW 10.4 mph - N/A   Partly Cloudy
11:53 AM 82.9 °F 87.0 °F 70.0 °F 65% 29.93 in 10.0 mi SSW 11.5 mph - N/A   Scattered Clouds
12:53 PM 86.0 °F 90.1 °F 69.1 °F 57% 29.90 in 10.0 mi SSW 10.4 mph - N/A   Mostly Cloudy
1:53 PM 87.1 °F 89.9 °F 66.9 °F 51% 29.87 in 10.0 mi SSW 16.1 mph 23.0 mph N/A   Scattered Clouds
2:53 PM 89.1 °F 91.3 °F 66.0 °F 46% 29.85 in 10.0 mi SW 16.1 mph 24.2 mph N/A   Mostly Cloudy
3:53 PM 89.1 °F 91.3 °F 66.0 °F 46% 29.82 in 10.0 mi SSW 10.4 mph 18.4 mph N/A   Mostly Cloudy
4:53 PM 88.0 °F 89.6 °F 64.9 °F 46% 29.78 in 10.0 mi SW 19.6 mph 26.5 mph N/A   Scattered Clouds
5:53 PM 87.1 °F 87.8 °F 63.0 °F 44% 29.78 in 10.0 mi SSW 20.7 mph 26.5 mph N/A   Clear
6:53 PM 84.9 °F 85.4 °F 62.1 °F 46% 29.81 in 10.0 mi SSW 13.8 mph 23.0 mph N/A   Partly Cloudy
7:53 PM 82.0 °F 83.4 °F 64.0 °F 54% 29.83 in 10.0 mi West 9.2 mph - N/A   Partly Cloudy
8:53 PM 77.0 °F - 64.0 °F 64% 29.86 in 10.0 mi WSW 3.5 mph - N/A   Clear
9:53 PM 73.9 °F - 64.0 °F 71% 29.88 in 10.0 mi West 3.5 mph - N/A   Clear
10:53 PM 73.9 °F - 64.0 °F 71% 29.89 in 10.0 mi West 5.8 mph - N/A   Clear
11:53 PM 71.1 °F - 64.0 °F 78% 29.89 in 10.0 mi WSW 3.5 mph - N/A   Partly Cloudy